Regional Weather Roundup
Issued by NWS

Home | Current Version | Previous Version | Text Only | Print | Product List | Glossary Off
Versions: 1 2 3 4 5 6 7 8 9 10 11 12 13 14 15 16 17 18 19 20 21 22 23 24 25 26 27 28 29 30 31 32 33 34 35 36 37 38 39 40 41 42 43 44 45 46 47 48 49 50

000
ASUS43 KFSD 301902
RWRSD

WEATHER ROUNDUP FOR SOUTH DAKOTA
NATIONAL WEATHER SERVICE SIOUX FALLS SD
200 PM CDT SAT APR 30 2016

NOTE: "FAIR" INDICATES FEW OR NO CLOUDS BELOW 12,000 FEET WITH NO
SIGNIFICANT WEATHER AND/OR OBSTRUCTIONS TO VISIBILITY.


SDZ001>005-009-010-012>017-302000-
NORTHWEST AND NORTH CENTRAL SOUTH DAKOTA

CITY           SKY/WX    TMP DP  RH WIND       PRES   REMARKS
BUFFALO          N/A     52  32  46 NE20      30.09S
FAITH            N/A     53  33  46 NE23      30.10S
MOBRIDGE       CLOUDY    58  33  39 NE26      30.09F
$$

SDZ012>016-024>037-041>051-057-063-072>074-302000-
SOUTHWEST AND SOUTH CENTRAL SOUTH DAKOTA

CITY           SKY/WX    TMP DP  RH WIND       PRES   REMARKS
RAPID CTY ARPT CLOUDY    47  37  68 NE20G26   30.08F
PIERRE         PTSUNNY   53  34  48 NE28G37   30.02S
CUSTER         CLOUDY    34  28  79 N17G30    30.04R WCI  23
PHILIP         CLOUDY    51  34  52 NE31G41   30.04S
PINE RIDGE     LGT RAIN  42  35  76 NE21G36   30.00S
WINNER         LGT RAIN  44  37  76 NE26G35   29.95S
$$

SDZ004>011-016>023-039-040-302000-
NORTHEAST SOUTH DAKOTA

CITY           SKY/WX    TMP DP  RH WIND       PRES   REMARKS
ABERDEEN       PTSUNNY   58  35  42 NE25G32   30.08F
WATERTOWN      CLOUDY    51  35  54 NE23G36   30.01F
BROOKINGS      CLOUDY    46  36  68 E21G35    29.97S
SISSETON         N/A     57  34  41 E20       30.08F
$$

SDZ017-020-022-023-036>040-048>070-302000-
SOUTHEAST SOUTH DAKOTA

CITY           SKY/WX    TMP DP  RH WIND       PRES   REMARKS
SIOUX FALLS    LGT RAIN  44  41  89 NE29G37   29.90F FOG
HURON          CLOUDY    50  37  61 NE22G31   29.99F
MITCHELL       LGT RAIN  45  40  82 NE25      29.94F
YANKTON        CLOUDY    45  41  87 NE21      29.86S
$$

ABBREVIATIONS USED IN REMARKS
   TC - TEMPERATURE IN CELSIUS
  WCI - WIND CHILL INDEX
   HX - HEAT INDEX
  VSB - VISIBILITY




USA.gov is the U.S. government's official web portal to all federal, state and local government web resources and services.